Weather in Borousy

Russia / Pskov Oblast     57°00′17″N   28°06′28″E
temp.,
°C
wind,
m/s
gust,
m/s
humid.,
%
clouds,
%
prec.,
mm/h
press.,
hPa
HPBL,
m
25 june, sat
sat2500:00+17sse11805 0.0 101811
03:00+15ese11860 0.0 101911
06:00+17ese11840 0.0 102013
09:00+23e12655 0.0 1020375
12:00+27ene11510 0.0 10201225
15:00+28ne22450 0.0 10191701
18:00+28ene22491 0.0 10191494
21:00+23ene22721 0.0 101912
26 june, sun
sun2600:00+19ene22795 0.0 102111
03:00+18se22816 0.0 102111
06:00+19se12835 0.0 102231
09:00+24sse11645 0.0 1023342
12:00+29wsw11495 0.0 10221308
15:00+30nnw23445 0.0 10221865
18:00+29n225060 0.0 1021792
21:00+25e2267100 0.0 102136
27 june, mon
mon2700:00+23wsw2472100 0.0 102274
03:00+21sw367937 0.0 1023130
06:00+20sw24862 0.0 102495
09:00+25sw22675 0.0 1024374
12:00+29sw225117 0.0 10231307
15:00+30w334521 0.0 10222007
18:00+29w235284 0.0 1022680
21:00+25w0061100 0.0 102211
28 june, tue
tue2800:00+24wnw2265100 0.0 102331
03:00+21nnw22757 0.0 102320
06:00+21e0079100 0.0 102312
09:00+22nne2280100 0.1 102355
12:00+28nnw115913 0.0 1023573
15:00+31nw224644 0.0 10221947
18:00+25ene467047 0.1 1022212
21:00+19ese51193100 3.1 1023327
29 june, wed
wed2900:00+17ne119495 1.4 102317
03:00+16se229357 1.7 102331
06:00+17se23936 1.0 102378
09:00+22e238098 1.1 1023361
12:00+27ese345954 0.0 10231240
15:00+28ese4451100 0.7 10221783
18:00+26ese3562100 0.3 1022202
21:00+22ese38745 0.3 1022165